Location: Central Falls
(41.8900°N, 71.3929°W)
Time: 02:16:21
(UTC+00:00)

Vanguard 2 - Pass Details

Date: 12 December 2023
Orbit: 554 x 2918 km, 32.9° (Epoch: 01 March)

Event Time Altitude Azimuth Distance (km) Brightness Sun altitude
Rises 23:15:57 0° 233° (SW) 6,037 13.2 -21.8°
Reaches altitude 10° 23:19:46 10° 228° (SW) 5,259 12.6 -22.5°
Maximum altitude 23:35:24 51° 159° (SSE) 3,423 10.6 -25.3°
Enters shadow 23:43:53 32° 106° (ESE) 4,095 10.6 -26.9°
Drops below altitude 10° 23:51:28 10° 91° (E) 5,407 - -28.3°
Sets 23:55:25 0° 86° (E) 6,212 - -29.0°
